FW2958 Weather Reports


time (UTC)temp
F
wind
direction
speed
knots
gust
knots
rain 1hr
in
rain 24hr
in
rain mn
in
humidity
%
barometer
mb
20260508220253 70 269 1.7 5.2 0.00 0.00 0.00 40 1011.3
20260508215754 70 245 1.7 6.1 0.00 0.00 0.00 40 1011.2
20260508215253 70 243 0.9 7.8 0.00 0.00 0.00 40 1011.2
20260508214753 71 272 6.1 8.7 0.00 0.00 0.00 39 1011.3
20260508213753 71 264 0.9 4.3 0.00 0.00 0.00 36 1011.1
20260508213253 71 269 0.0 5.2 0.00 0.00 0.00 37 1011.1
20260508212253 71 266 0.0 2.6 0.00 0.00 0.00 39 1011.0
20260508211753 71 281 1.7 7.0 0.00 0.00 0.00 40 1011.0
20260508210753 72 281 4.3 7.0 0.00 0.00 0.00 35 1011.1
20260508210253 72 303 0.0 0.9 0.00 0.00 0.00 34 1011.2
20260508205753 71 344 0.0 0.0 0.00 0.00 0.00 35 1011.2
20260508204753 71 341 0.0 2.6 0.00 0.00 0.00 39 1011.2
20260508204253 70 269 0.9 2.6 0.00 0.00 0.00 39 1011.3
20260508203754 70 15 0.9 2.6 0.00 0.00 0.00 39 1011.3
20260508203253 70 38 0.0 2.6 0.00 0.00 0.00 35 1011.6
20260508202753 71 300 1.7 5.2 0.00 0.00 0.00 36 1011.7
20260508202254 70 300 0.0 0.0 0.00 0.00 0.00 36 1011.8
20260508201754 70 285 0.9 6.1 0.00 0.00 0.00 40 1011.8
20260508201254 70 310 1.7 6.1 0.00 0.00 0.00 39 1011.9
20260508200754 70 284 1.7 6.1 0.00 0.00 0.00 35 1012.2
20260508200254 70 269 1.7 5.2 0.00 0.00 0.00 37 1012.4
20260508195754 70 207 0.0 0.0 0.00 0.00 0.00 41 1012.5
20260508195254 70 285 0.0 8.7 0.00 0.00 0.00 37 1012.7
20260508194754 70 270 1.7 7.8 0.00 0.00 0.00 35 1012.7
20260508194253 70 248 0.9 7.0 0.00 0.00 0.00 36 1012.9
20260508193753 70 235 0.0 0.0 0.00 0.00 0.00 36 1013.0
20260508193253 69 246 0.0 2.6 0.00 0.00 0.00 35 1013.0
20260508192253 69 277 2.6 6.1 0.00 0.00 0.00 38 1013.1
20260508191753 69 270 0.0 0.0 0.00 0.00 0.00 35 1013.3
20260508191253 69 211 0.0 0.0 0.00 0.00 0.00 33 1013.2
20260508190754 69 286 0.0 6.1 0.00 0.00 0.00 38 1013.1
20260508190254 68 293 0.0 6.1 0.00 0.00 0.00 42 1013.0
20260508185754 68 274 0.9 6.1 0.00 0.00 0.00 37 1013.4
20260508185254 68 283 0.9 6.1 0.00 0.00 0.00 40 1013.4
20260508184754 68 256 1.7 6.1 0.00 0.00 0.00 44 1013.4
20260508184254 67 248 2.6 7.0 0.00 0.00 0.00 41 1013.5
20260508183754 67 289 0.0 4.3 0.00 0.00 0.00 42 1013.6
20260508183254 67 253 4.3 6.1 0.00 0.00 0.00 44 1013.7
20260508181253 66 127 0.0 0.0 0.00 0.00 0.00 43 1014.0
20260508180754 66 67 0.0 0.0 0.00 0.00 0.00 49 1014.0
20260508180253 66 34 0.0 0.0 0.00 0.00 0.00 42 1014.2
20260508175254 66 94 1.7 6.1 0.00 0.00 0.00 43 1014.3
20260508174254 65 294 0.0 5.2 0.00 0.00 0.00 40 1014.4
20260508173754 66 274 0.0 0.0 0.00 0.00 0.00 47 1014.6
20260508173254 65 301 0.0 0.0 0.00 0.00 0.00 42 1014.7
20260508172754 65 265 0.0 0.0 0.00 0.00 0.00 38 1014.8
20260508172254 65 24 0.0 0.0 0.00 0.00 0.00 40 1015.0
20260508171754 65 347 0.0 6.1 0.00 0.00 0.00 45 1015.2
20260508171254 65 271 0.0 5.2 0.00 0.00 0.00 42 1015.2
20260508170754 65 337 0.0 4.3 0.00 0.00 0.00 41 1015.3
20260508170254 64 69 0.9 5.2 0.00 0.00 0.00 39 1015.6
20260508165754 65 3 0.0 0.0 0.00 0.00 0.00 38 1015.6
20260508165254 64 251 0.0 0.0 0.00 0.00 0.00 40 1015.7
20260508164753 64 72 0.0 2.6 0.00 0.00 0.00 43 1015.8
20260508164254 64 45 0.9 4.3 0.00 0.00 0.00 42 1015.9
20260508163753 63 127 0.0 0.0 0.00 0.00 0.00 43 1015.9
20260508163254 63 33 0.0 0.0 0.00 0.00 0.00 44 1015.9
20260508162754 63 69 0.0 4.3 0.00 0.00 0.00 43 1016.0
20260508162254 63 79 3.5 5.2 0.00 0.00 0.00 45 1016.0
20260508161754 63 36 2.6 7.0 0.00 0.00 0.00 39 1016.2
20260508161254 63 351 0.0 0.0 0.00 0.00 0.00 43 1016.3
20260508155754 62 266 1.7 4.3 0.00 0.00 0.00 43 1016.5
20260508155254 62 292 0.0 0.0 0.00 0.00 0.00 45 1016.6
20260508154754 62 290 0.0 0.0 0.00 0.00 0.00 41 1016.7
20260508154254 62 71 0.0 0.0 0.00 0.00 0.00 45 1016.7
20260508153754 62 22 0.0 0.0 0.00 0.00 0.00 45 1016.9
20260508152754 61 355 0.0 0.0 0.00 0.00 0.00 41 1016.9
20260508152254 61 38 0.0 0.0 0.00 0.00 0.00 47 1017.0
20260508151754 61 350 0.0 0.0 0.00 0.00 0.00 53 1017.0
20260508151254 60 9 0.0 0.0 0.00 0.00 0.00 48 1017.0
20260508150754 60 64 0.0 0.0 0.00 0.00 0.00 55 1017.0
20260508150254 59 64 0.0 0.0 0.00 0.01 0.00 52 1017.0
20260508145754 59 42 0.0 0.0 0.00 0.01 0.00 49 1017.1
20260508145254 58 14 0.0 0.0 0.00 0.01 0.00 57 1017.1
20260508144754 57 110 0.0 0.0 0.00 0.01 0.00 70 1017.2
20260508144254 56 63 0.0 0.0 0.00 0.01 0.00 71 1017.3
20260508143755 55 63 0.0 0.0 0.00 0.01 0.00 75 1017.2
20260508143255 55 343 0.0 0.0 0.00 0.01 0.00 83 1017.3
20260508142755 55 111 0.0 0.0 0.00 0.01 0.00 87 1017.4
20260508142254 55 94 0.0 0.0 0.00 0.01 0.00 91 1017.4
20260508140754 53 74 0.0 0.0 0.00 0.01 0.00 100 1017.4
20260508140254 53 60 0.0 0.0 0.00 0.01 0.00 100 1017.4
20260508135254 52 39 0.0 0.0 0.00 0.02 0.00 100 1017.4
20260508134754 52 39 0.0 0.0 0.00 0.02 0.00 100 1017.4
20260508134254 51 23 0.0 0.0 0.00 0.02 0.00 100 1017.5
20260508133754 52 18 0.0 0.0 0.00 0.02 0.00 100 1017.5
20260508132755 51 205 0.0 0.0 0.00 0.02 0.00 100 1017.4
20260508131755 51 205 0.0 0.0 0.00 0.02 0.00 100 1017.3
20260508131254 50 188 0.0 0.0 0.00 0.02 0.00 100 1017.3
20260508130754 49 188 0.0 0.0 0.00 0.02 0.00 100 1017.4
20260508130255 48 188 0.0 0.0 0.00 0.02 0.00 100 1017.5
20260508125255 47 188 0.0 0.0 0.00 0.02 0.00 100 1017.5
20260508124755 47 198 0.0 0.0 0.00 0.02 0.00 100 1017.5
20260508124254 46 198 0.0 0.0 0.00 0.02 0.00 100 1017.5
20260508123754 46 199 0.0 0.0 0.00 0.02 0.00 100 1017.4
20260508123254 45 199 0.0 0.0 0.00 0.02 0.00 100 1017.3
20260508122754 45 199 0.0 0.0 0.00 0.02 0.00 100 1017.4
20260508121754 45 199 0.0 0.0 0.00 0.02 0.00 100 1017.2
20260508121254 45 225 0.0 0.0 0.00 0.02 0.00 100 1017.1
20260508120754 45 225 0.0 0.0 0.00 0.02 0.00 100 1017.1
20260508115753 44 225 0.0 0.0 0.00 0.03 0.00 100 1017.0
20260508114754 44 225 0.0 0.0 0.00 0.04 0.00 100 1016.9
20260508114254 44 225 0.0 0.0 0.00 0.05 0.00 100 1016.9
20260508113755 44 225 0.0 0.0 0.00 0.05 0.00 100 1016.9
20260508113255 43 225 0.0 0.0 0.00 0.05 0.00 100 1016.9
20260508112755 43 225 0.0 0.0 0.00 0.06 0.00 100 1016.6
20260508111755 43 225 0.0 0.0 0.00 0.07 0.00 100 1016.4
20260508111255 43 225 0.0 0.0 0.00 0.08 0.00 100 1016.4
20260508110755 43 225 0.0 0.0 0.00 0.09 0.00 100 1016.4
20260508110255 44 225 0.0 0.0 0.00 0.12 0.00 100 1016.3
20260508105754 44 225 0.0 0.0 0.00 0.12 0.00 100 1016.2
20260508105254 44 225 0.0 0.0 0.00 0.12 0.00 100 1016.0
20260508104754 44 225 0.0 0.0 0.00 0.12 0.00 100 1015.9
20260508104255 44 225 0.0 0.0 0.00 0.12 0.00 100 1015.9
20260508103755 44 225 0.0 0.0 0.00 0.12 0.00 100 1015.8
20260508102254 44 225 0.0 0.0 0.00 0.12 0.00 100 1015.7
20260508101754 44 225 0.0 0.0 0.00 0.12 0.00 100 1015.6
20260508101255 45 225 0.0 0.0 0.00 0.13 0.00 100 1015.5
20260508100755 45 225 0.0 0.0 0.00 0.13 0.00 100 1015.4
20260508095754 45 225 0.0 0.0 0.00 0.14 0.00 100 1015.3
20260508094754 45 225 0.0 0.0 0.00 0.15 0.00 100 1015.2
20260508094255 45 225 0.0 0.0 0.00 0.17 0.00 100 1015.2
20260508093254 46 225 0.0 0.0 0.00 0.18 0.00 100 1015.2
20260508092755 46 225 0.0 0.0 0.00 0.18 0.00 100 1015.2
20260508092254 46 225 0.0 0.0 0.00 0.18 0.00 100 1015.2
20260508091255 46 225 0.0 0.0 0.00 0.20 0.00 100 1015.2
20260508090755 46 225 0.0 0.0 0.00 0.21 0.00 100 1015.1
20260508085754 47 225 0.0 0.0 0.00 0.24 0.00 100 1015.0
20260508084755 47 225 0.0 0.0 0.00 0.24 0.00 100 1014.8
20260508084254 47 225 0.0 0.0 0.00 0.24 0.00 100 1015.0
20260508083755 46 225 0.0 0.0 0.00 0.24 0.00 100 1014.8
20260508083255 46 225 0.0 0.0 0.00 0.25 0.00 100 1014.8
20260508082754 46 225 0.0 0.0 0.00 0.25 0.00 100 1014.9
20260508082255 46 225 0.0 0.0 0.00 0.25 0.00 100 1015.0
20260508081754 46 225 0.0 0.0 0.00 0.25 0.00 100 1014.9
20260508081254 46 225 0.0 0.0 0.00 0.25 0.00 100 1014.9
20260508080754 46 225 0.0 0.0 0.00 0.25 0.00 100 1014.9
20260508075754 46 225 0.0 0.0 0.00 0.25 0.00 100 1015.0
20260508075254 46 225 0.0 0.0 0.00 0.25 0.00 100 1014.9
20260508074754 46 225 0.0 0.0 0.00 0.25 0.00 100 1014.9
20260508074254 46 225 0.0 0.0 0.00 0.25 0.00 100 1014.9
20260508073754 46 225 0.0 0.0 0.00 0.25 0.00 100 1014.9
20260508072254 47 225 0.0 0.0 0.00 0.30 0.00 100 1014.8
20260508071754 47 225 0.0 0.0 0.00 0.30 0.00 100 1014.7
20260508070754 47 225 0.0 0.0 0.00 0.30 0.00 100 1014.7
20260508065754 47 225 0.0 0.0 0.00 0.30 0.00 100 1014.6
20260508065255 47 225 0.0 0.0 0.00 0.30 0.00 100 1014.6
20260508064754 48 225 0.0 0.0 0.00 0.30 0.00 100 1014.7
20260508064254 48 225 0.0 0.0 0.00 0.30 0.00 100 1014.9
20260508063755 48 225 0.0 0.0 0.00 0.30 0.00 100 1014.9
20260508062255 48 225 0.0 0.0 0.00 0.31 0.00 100 1014.9
20260508061755 48 225 0.0 0.0 0.00 0.31 0.00 100 1015.0
20260508060755 48 225 0.0 0.0 0.00 0.31 0.00 100 1015.0
20260508060255 48 225 0.0 0.0 0.00 0.31 0.00 100 1014.9
20260508055255 48 225 0.0 0.0 0.00 0.32 0.00 100 1015.0
20260508054755 48 225 0.0 0.0 0.00 0.32 0.00 100 1014.9
20260508054254 48 225 0.0 0.0 0.00 0.33 0.00 100 1015.0
20260508053255 47 225 0.0 0.0 0.00 0.33 0.00 100 1015.0
20260508052755 47 225 0.0 0.0 0.00 0.33 0.00 100 1014.9
20260508052255 47 225 0.0 0.0 0.00 0.33 0.00 100 1014.9
20260508051755 47 225 0.0 0.0 0.00 0.33 0.00 100 1015.0
20260508051255 47 225 0.0 0.0 0.00 0.33 0.00 100 1014.9
20260508050255 46 225 0.0 0.0 0.00 0.33 0.00 100 1014.8
20260508045755 46 225 0.0 0.0 0.00 0.33 0.00 100 1014.8
20260508045255 46 225 0.0 0.0 0.00 0.33 0.00 100 1014.7
20260508043755 46 225 0.0 0.0 0.00 0.33 0.00 100 1014.5
20260508043255 46 225 0.0 0.0 0.00 0.33 0.00 100 1014.5
20260508042755 45 225 0.0 0.0 0.00 0.33 0.00 100 1014.4
20260508042255 45 225 0.0 0.0 0.00 0.33 0.00 100 1014.4
20260508041755 45 225 0.0 0.0 0.00 0.33 0.00 100 1014.4
20260508041255 45 225 0.0 0.0 0.00 0.33 0.00 100 1014.3
20260508040804 45 225 0.0 0.0 0.00 0.33 0.00 100 1014.3
20260508040255 45 225 0.0 0.0 0.00 0.33 0.00 100 1014.2
20260508035754 45 225 0.0 0.0 0.00 0.33 0.33 100 1014.1
20260508035255 45 225 0.0 0.0 0.00 0.33 0.33 100 1014.0
20260508034755 45 225 0.0 0.0 0.00 0.33 0.33 100 1014.0
20260508034255 46 225 0.0 0.0 0.00 0.33 0.33 100 1014.0
20260508033755 46 225 0.0 0.0 0.00 0.34 0.33 100 1013.9
20260508032755 46 225 0.0 0.0 0.00 0.34 0.33 100 1014.1
20260508032255 46 225 0.0 0.0 0.00 0.34 0.33 100 1014.1
20260508031755 46 225 0.0 0.0 0.00 0.34 0.33 100 1014.2
20260508030755 46 225 0.0 0.0 0.00 0.34 0.33 100 1014.0
20260508025755 46 225 0.0 0.0 0.00 0.34 0.33 100 1013.9
20260508025254 46 225 0.0 0.0 0.00 0.34 0.33 99 1013.8
20260508024755 46 225 0.0 0.0 0.00 0.34 0.33 99 1013.8
20260508024255 46 225 0.0 0.0 0.00 0.34 0.33 99 1013.7
20260508023255 46 225 0.0 0.0 0.00 0.34 0.33 99 1013.6
20260508021255 47 225 0.0 0.0 0.00 0.34 0.33 97 1013.4
20260508020755 48 225 0.0 0.0 0.00 0.34 0.33 97 1013.3
20260508020255 48 225 0.0 0.0 0.00 0.34 0.33 96 1013.2
20260508015755 48 225 0.0 0.0 0.00 0.34 0.33 96 1013.1
20260508015255 48 225 0.0 0.0 0.00 0.34 0.33 96 1013.1
20260508014255 49 225 0.0 0.0 0.00 0.36 0.33 96 1012.7
20260508013755 49 225 0.0 0.0 0.00 0.37 0.33 95 1012.5
20260508013256 49 225 0.0 0.0 0.00 0.38 0.33 95 1012.5
20260508012755 49 225 0.0 0.0 0.00 0.38 0.33 95 1012.5
20260508012255 49 225 0.0 0.0 0.00 0.39 0.33 94 1012.5
20260508011755 50 225 0.0 0.0 0.00 0.41 0.33 94 1012.4
20260508011255 50 225 0.0 0.0 0.00 0.42 0.33 94 1012.4
20260508010755 50 225 0.0 0.0 0.00 0.43 0.33 94 1012.3
20260508010255 50 225 0.0 0.0 0.00 0.44 0.33 93 1012.2
20260508005255 51 225 0.0 0.0 0.00 0.45 0.33 92 1012.1
20260508004755 51 225 0.0 0.0 0.00 0.46 0.33 92 1012.0
20260508004255 52 225 0.0 0.0 0.00 0.47 0.33 92 1011.9
20260508003755 52 225 0.0 0.0 0.00 0.48 0.33 91 1011.9
20260508003255 52 225 0.0 0.0 0.00 0.48 0.33 91 1011.8
20260508002256 53 225 0.0 0.0 0.00 0.48 0.33 90 1011.7
20260508001755 54 225 0.0 0.0 0.00 0.49 0.33 89 1011.6
20260508001255 54 225 0.0 0.0 0.00 0.49 0.33 88 1011.6
20260508000755 55 233 0.0 0.0 0.00 0.49 0.33 87 1011.7
20260508000257 55 233 0.0 0.0 0.00 0.49 0.33 85 1011.6
20260507235255 56 233 0.0 0.0 0.00 0.49 0.33 82 1011.8
20260507234755 57 233 0.0 0.0 0.00 0.49 0.33 81 1011.8
20260507234256 57 233 0.0 0.0 0.00 0.49 0.33 79 1011.7
20260507233755 57 233 0.0 0.0 0.00 0.49 0.33 77 1011.8
20260507233255 58 233 0.0 0.0 0.00 0.49 0.33 76 1011.7
20260507232755 58 233 0.0 0.0 0.00 0.49 0.33 75 1011.7
20260507232255 59 233 0.0 0.0 0.00 0.49 0.33 71 1011.7
20260507231755 60 233 0.0 0.0 0.00 0.50 0.33 71 1011.8
20260507231255 60 233 0.0 0.0 0.00 0.50 0.33 71 1011.8
20260507230755 60 233 0.0 0.0 0.00 0.50 0.33 72 1011.8
20260507230255 60 233 0.0 0.0 0.00 0.50 0.33 70 1011.9
20260507225756 60 232 0.0 0.0 0.00 0.51 0.33 69 1011.8
20260507225255 60 232 0.0 0.0 0.00 0.52 0.33 69 1012.0
20260507223755 59 99 0.0 0.0 0.00 0.52 0.33 75 1011.9
20260507222755 57 99 0.0 0.0 0.00 0.52 0.33 76 1012.0
20260507222255 57 55 0.0 0.0 0.00 0.52 0.33 77 1011.8
20260507221755 58 55 0.0 0.0 0.00 0.52 0.33 75 1011.8
20260507221256 58 55 0.0 0.0 0.00 0.52 0.33 74 1011.7
20260507220755 58 55 0.0 0.0 0.00 0.52 0.33 74 1011.8